DW8501 Madrid ES current weather conditions

sailwx.info

Wind from 252 at 7 knots gusting 13

Air temperature 18.3° C
Dewpoint 4.5° C

Last reported at 2015-Apr-28 14:50 UTC.
Time now 2015-Apr-28 16:02 UTC

Location: N 40°27' W 003°35'.
View on Google Maps.

See reports from other nearby stations

  
Tides and Currents Weather Stations Pressure Air Temp Water Temp Dewpoint Dewpoint Depression Visibility Wind Speed Wind Dir Waves Ship Positions
date/time (UTC)wind fromknots sea level pressurealtimeterstation pressurevisibilityair tempwater tempwave heightnotes
2015-Apr-28 14:50 252 7 gusting 13 18.3
2015-Apr-28 14:45 231 6 gusting 13 18.3
2015-Apr-28 14:40 213 6 gusting 13 18.3
2015-Apr-28 14:35 198 6 gusting 10 18.3
2015-Apr-28 14:30 208 6 gusting 13 18.3
2015-Apr-28 14:25 234 2 gusting 13 17.8
2015-Apr-28 14:20 227 9 gusting 14 17.2
2015-Apr-28 14:15 226 10 gusting 14 16.7
2015-Apr-28 14:10 223 11 gusting 19 16.7
2015-Apr-28 14:05 226 11 gusting 19 17.2
2015-Apr-28 14:00 233 5 gusting 9 18.3
2015-Apr-28 13:55 259 3 gusting 13 17.2
2015-Apr-28 13:50 270 6 gusting 15 16.7
2015-Apr-28 13:45 251 10 gusting 15 17.2
2015-Apr-28 13:40 254 8 gusting 13 17.2
2015-Apr-28 13:35 264 9 gusting 13 17.8
2015-Apr-28 13:30 250 3 gusting 10 17.8
2015-Apr-28 13:25 276 3 gusting 10 17.8
2015-Apr-28 13:20 250 6 gusting 10 17.8
2015-Apr-28 13:15 215 7 gusting 10 18.3
2015-Apr-28 13:10 201 3 gusting 10 18.3
2015-Apr-28 13:05 179 3 gusting 6 18.3
2015-Apr-28 13:00 193 4 gusting 10 18.9
2015-Apr-28 12:55 193 4 gusting 10 18.9
2015-Apr-28 12:50 165 6 gusting 10 18.9
2015-Apr-28 12:45 176 3 gusting 13 18.3
2015-Apr-28 12:40 185 2 gusting 13 18.9
2015-Apr-28 12:35 133 1 gusting 3 20.0
2015-Apr-28 12:30 181 0 gusting 7 19.4
2015-Apr-28 12:25 172 1 gusting 7 18.3
2015-Apr-28 12:20 165 1 gusting 6 18.3
2015-Apr-28 12:15 176 3 gusting 5 18.3
2015-Apr-28 12:10 205 2 gusting 6 17.8
2015-Apr-28 12:05 198 1 gusting 6 17.2
2015-Apr-28 12:00 178 2 gusting 6 17.2
2015-Apr-28 11:55 214 2 gusting 7 17.2
2015-Apr-28 11:50 226 4 gusting 7 16.7
2015-Apr-28 11:45 157 3 gusting 6 17.2
2015-Apr-28 11:40 116 1 gusting 6 17.8
2015-Apr-28 11:35 126 3 gusting 6 17.8
2015-Apr-28 11:30 201 5 gusting 6 18.3
2015-Apr-28 11:25 213 1 gusting 6 17.8
2015-Apr-28 11:20 222 2 gusting 6 17.2
2015-Apr-28 11:15 223 1 gusting 6 16.7
2015-Apr-28 11:10 183 1 gusting 6 16.7
2015-Apr-28 11:05 154 0 gusting 6 16.7
2015-Apr-28 11:00 161 1 gusting 6 16.7
2015-Apr-28 10:55 159 3 gusting 6 17.2
2015-Apr-28 10:50 133 1 gusting 5 17.8
2015-Apr-28 10:45 118 2 gusting 5 18.3
2015-Apr-28 10:40 114 1 gusting 3 17.8
2015-Apr-28 10:35 077 2 gusting 3 17.8
2015-Apr-28 10:30 046 1 gusting 3 17.2
2015-Apr-28 10:25 319 1 gusting 5 16.7
2015-Apr-28 10:20 321 0 gusting 5 15.6
2015-Apr-28 10:15 030 1 gusting 6 15.6
2015-Apr-28 10:10 088 1 gusting 8 14.4
2015-Apr-28 10:05 084 6 gusting 9 14.4
2015-Apr-28 10:00 071 6 gusting 9 14.4
2015-Apr-28 09:55 079 3 gusting 9 15.6
2015-Apr-28 09:50 077 4 gusting 9 15.6
2015-Apr-28 09:45 067 1 gusting 8 15.0
2015-Apr-28 09:40 090 2 gusting 8 15.0
2015-Apr-28 09:35 106 4 gusting 7 15.6
2015-Apr-28 09:30 120 4 gusting 6 16.1
2015-Apr-28 09:25 103 0 gusting 6 15.0
2015-Apr-28 09:20 095 1 gusting 9 14.4
2015-Apr-28 09:15 094 4 gusting 9 13.3
2015-Apr-28 09:10 094 4 gusting 7 13.3
2015-Apr-28 09:05 114 2 gusting 7 13.9
2015-Apr-28 09:00 117 5 gusting 7 13.9
2015-Apr-28 08:55 106 1 gusting 7 13.3
2015-Apr-28 08:50 120 4 gusting 9 13.3
2015-Apr-28 08:45 111 3 gusting 11 12.8
2015-Apr-28 08:40 090 6 gusting 11 12.2
2015-Apr-28 08:35 084 8 gusting 10 12.2
2015-Apr-28 08:30 090 3 gusting 10 12.2
2015-Apr-28 08:25 119 6 gusting 10 12.2
2015-Apr-28 08:20 091 6 gusting 9 11.7
2015-Apr-28 08:15 052 4 gusting 11 11.1
2015-Apr-28 08:10 050 6 gusting 11 11.1
2015-Apr-28 08:05 065 6 gusting 9 11.1
2015-Apr-28 08:00 058 4 gusting 8 11.7
2015-Apr-28 07:55 061 3 gusting 8 11.7
2015-Apr-28 07:50 095 1 gusting 6 11.7
2015-Apr-28 07:45 112 2 gusting 6 11.7
2015-Apr-28 07:40 117 2 gusting 6 11.7
2015-Apr-28 07:35 124 1 gusting 6 11.1
2015-Apr-28 07:30 109 3 gusting 6 11.1
2015-Apr-28 07:25 067 5 gusting 6 10.6
2015-Apr-28 07:20 060 3 gusting 8 10.0
2015-Apr-28 07:15 082 6 gusting 8 10.0
2015-Apr-28 07:10 093 4 gusting 6 10.6
2015-Apr-28 07:05 096 5 gusting 6 10.6
2015-Apr-28 07:00 101 3 gusting 6 10.6
2015-Apr-28 06:55 102 3 gusting 6 10.0
2015-Apr-28 06:50 108 3 gusting 6 10.0
2015-Apr-28 06:45 108 3 gusting 6 10.6
2015-Apr-28 06:40 110 1 gusting 3 10.6
2015-Apr-28 06:35 120 2 gusting 3 10.6
2015-Apr-28 06:30 10.0
2015-Apr-28 06:25 222 1 gusting 2 9.4
2015-Apr-28 06:20 225 0 gusting 1 9.4
2015-Apr-28 06:15 8.9
2015-Apr-28 06:10 8.3
2015-Apr-28 06:05 8.3
2015-Apr-28 06:00 8.3
2015-Apr-28 05:55 181 1 gusting 3 8.3
2015-Apr-28 05:50 179 1 gusting 3 8.3
2015-Apr-28 05:45 190 1 gusting 3 7.8
2015-Apr-28 05:40 7.8
2015-Apr-28 05:35 7.8
2015-Apr-28 05:30 136 0 gusting 2 7.2
2015-Apr-28 05:25 7.2
2015-Apr-28 05:20 110 1 gusting 7 7.2
2015-Apr-28 05:15 093 3 gusting 7 7.2
2015-Apr-28 05:10 090 6 gusting 7 7.2
2015-Apr-28 05:05 102 5 gusting 6 7.2
2015-Apr-28 05:00 107 2 gusting 4 7.2
2015-Apr-28 04:55 103 2 gusting 4 7.8
2015-Apr-28 04:50 071 3 gusting 6 7.8
2015-Apr-28 04:45 058 3 gusting 6 7.8
2015-Apr-28 04:40 067 6 gusting 6 7.8
2015-Apr-28 04:35 061 2 gusting 3 7.2
2015-Apr-28 04:30 052 1 gusting 1 7.2
2015-Apr-28 04:25 080 0 gusting 2 7.2
2015-Apr-28 04:20 7.8
2015-Apr-28 04:15 107 1 gusting 2 7.8
2015-Apr-28 04:10 105 1 gusting 1 7.8
2015-Apr-28 04:05 124 1 gusting 1 7.8
2015-Apr-28 04:00 098 0 gusting 1 7.8
2015-Apr-28 03:55 053 0 gusting 2 7.8
2015-Apr-28 03:50 065 1 gusting 2 7.8
2015-Apr-28 03:45 086 1 gusting 2 7.2
2015-Apr-28 03:40 089 1 gusting 1 7.2
2015-Apr-28 03:35 087 0 gusting 2 7.8
2015-Apr-28 03:30 090 0 gusting 3 7.8
2015-Apr-28 03:25 091 1 gusting 5 7.8
2015-Apr-28 03:20 090 2 gusting 5 8.3
2015-Apr-28 03:15 088 3 gusting 5 8.3
2015-Apr-28 03:10 088 3 gusting 3 8.3
2015-Apr-28 03:05 090 2 gusting 3 8.3
2015-Apr-28 03:00 090 2 gusting 4 8.3
2015-Apr-28 02:55 083 2 gusting 6 8.9
2015-Apr-28 02:50 086 3 gusting 6 8.9
2015-Apr-28 02:45 093 3 gusting 5 8.9
2015-Apr-28 02:40 092 3 gusting 5 8.9
2015-Apr-28 02:35 096 2 gusting 3 8.9
2015-Apr-28 02:30 079 1 gusting 6 8.9
2015-Apr-28 02:25 056 1 gusting 6 8.9
2015-Apr-28 02:20 016 0 gusting 2 8.3
2015-Apr-28 02:15 353 1 gusting 1 8.9
2015-Apr-28 02:10 8.9
2015-Apr-28 02:05 181 0 gusting 1 8.9
2015-Apr-28 02:00 177 0 gusting 2 8.9
2015-Apr-28 01:55 181 1 gusting 2 8.9
2015-Apr-28 01:50 188 1 gusting 2 8.9
2015-Apr-28 01:45 216 1 gusting 1 8.9
2015-Apr-28 01:40 214 1 gusting 1 8.9
2015-Apr-28 01:35 142 0 gusting 1 9.4
2015-Apr-28 01:30 135 0 gusting 1 9.4
2015-Apr-28 01:25 162 0 gusting 1 9.4
2015-Apr-28 01:20 8.9
2015-Apr-28 01:15 225 0 gusting 1 8.9
2015-Apr-28 01:10 225 0 gusting 1 8.9
2015-Apr-28 01:05 224 0 gusting 2 8.9
2015-Apr-28 01:00 219 0 gusting 2 8.9
2015-Apr-28 00:55 211 1 gusting 2 8.9
2015-Apr-28 00:50 191 1 gusting 2 8.9
2015-Apr-28 00:45 197 1 gusting 2 8.9
2015-Apr-28 00:40 244 0 gusting 1 8.9
2015-Apr-28 00:35 236 1 gusting 1 8.9
2015-Apr-28 00:30 228 1 gusting 1 9.4
2015-Apr-28 00:25 203 0 gusting 2 9.4
2015-Apr-28 00:20 175 0 gusting 2 9.4
2015-Apr-28 00:15 186 0 gusting 3 9.4
2015-Apr-28 00:10 187 1 gusting 3 9.4
2015-Apr-28 00:05 172 2 gusting 3 10.0
2015-Apr-28 00:00 131 2 gusting 3 10.0
2015-Apr-27 23:55 093 0 gusting 3 10.0
2015-Apr-27 23:50 085 1 gusting 3 10.0
2015-Apr-27 23:45 083 1 gusting 3 10.6
2015-Apr-27 23:40 082 2 gusting 6 10.6
2015-Apr-27 23:35 077 1 gusting 6 10.6
2015-Apr-27 23:30 081 3 gusting 6 10.6
2015-Apr-27 23:25 081 2 gusting 6 10.6
2015-Apr-27 23:20 084 3 gusting 6 10.6
2015-Apr-27 23:15 096 2 gusting 5 10.6
2015-Apr-27 23:10 100 2 gusting 3 10.6
2015-Apr-27 23:05 098 1 gusting 2 10.6
2015-Apr-27 23:00 134 1 gusting 2 10.6
2015-Apr-27 22:55 154 0 gusting 2 11.1
2015-Apr-27 22:50 096 1 gusting 2 10.6
2015-Apr-27 22:45 302 1 gusting 2 10.6
2015-Apr-27 22:40 10.6
2015-Apr-27 22:35 274 1 gusting 3 10.6
2015-Apr-27 22:30 254 1 gusting 3 11.1
2015-Apr-27 22:25 11.1
2015-Apr-27 22:20 129 0 gusting 4 11.7
2015-Apr-27 22:15 094 1 gusting 6 11.7
2015-Apr-27 22:10 055 2 gusting 6 11.7
2015-Apr-27 22:05 058 5 gusting 6 11.7
2015-Apr-27 22:00 077 5 gusting 6 11.7
2015-Apr-27 21:55 075 4 gusting 6 11.7
2015-Apr-27 21:50 066 3 gusting 6 11.7
2015-Apr-27 21:45 068 3 gusting 6 11.7
2015-Apr-27 21:40 071 2 gusting 6 12.2
2015-Apr-27 21:35 068 3 gusting 6 12.2
2015-Apr-27 21:30 068 5 gusting 6 12.2
2015-Apr-27 21:25 055 6 gusting 6 12.8
2015-Apr-27 21:20 028 5 gusting 6 12.8
2015-Apr-27 21:15 025 4 gusting 6 12.8
2015-Apr-27 21:10 040 5 gusting 11 12.8
2015-Apr-27 21:05 046 6 gusting 11 12.8
2015-Apr-27 21:00 040 6 gusting 11 12.8
2015-Apr-27 20:55 346 5 gusting 6 13.3
2015-Apr-27 20:50 320 1 gusting 9 12.8
2015-Apr-27 20:45 306 1 gusting 9 12.8
2015-Apr-27 20:40 295 6 gusting 8 12.8
2015-Apr-27 20:35 288 3 gusting 7 12.8
2015-Apr-27 20:30 269 2 gusting 7 12.8
2015-Apr-27 20:25 253 3 gusting 5 12.8
2015-Apr-27 20:20 281 2 gusting 3 13.3
2015-Apr-27 20:15 306 1 gusting 5 13.3
2015-Apr-27 20:10 310 0 gusting 5 13.3
2015-Apr-27 20:05 306 3 gusting 6 13.3
2015-Apr-27 20:00 291 3 gusting 6 13.3
2015-Apr-27 19:55 301 3 gusting 8 13.3
2015-Apr-27 19:50 322 2 gusting 8 13.9
2015-Apr-27 19:45 313 2 gusting 8 13.9
2015-Apr-27 19:40 292 1 gusting 8 13.9
2015-Apr-27 19:35 300 6 gusting 8 13.9
2015-Apr-27 19:30 298 4 gusting 10 13.9
2015-Apr-27 19:25 298 6 gusting 10 13.9
2015-Apr-27 19:20 320 2 gusting 10 13.9
2015-Apr-27 19:15 312 5 gusting 10 13.9
2015-Apr-27 19:10 295 6 gusting 10 13.9
2015-Apr-27 19:05 307 2 gusting 9 13.9
2015-Apr-27 19:00 310 6 gusting 9 14.4
2015-Apr-27 18:55 293 6 gusting 13 14.4
2015-Apr-27 18:50 310 4 gusting 13 14.4
2015-Apr-27 18:45 333 3 gusting 13 14.4
2015-Apr-27 18:40 327 6 gusting 14 14.4
2015-Apr-27 18:35 288 9 gusting 14 14.4
2015-Apr-27 18:30 271 6 gusting 13 15.0
2015-Apr-27 18:25 302 4 gusting 11 15.6
2015-Apr-27 18:20 308 6 gusting 10 15.6
2015-Apr-27 18:15 292 6 gusting 10 15.6
2015-Apr-27 18:10 289 2 gusting 9 15.6
2015-Apr-27 18:05 312 6 gusting 9 15.6
2015-Apr-27 18:00 335 6 gusting 9 15.6
2015-Apr-27 17:55 319 5 gusting 8 16.1
2015-Apr-27 17:50 303 6 gusting 9 16.1
2015-Apr-27 17:45 285 3 gusting 13 16.7
2015-Apr-27 17:40 290 2 gusting 13 16.1
2015-Apr-27 17:35 299 5 gusting 12 16.7
2015-Apr-27 17:30 301 6 gusting 16 16.7
2015-Apr-27 17:25 296 4 gusting 17 16.1
2015-Apr-27 17:20 299 10 gusting 17 16.1
2015-Apr-27 17:15 307 13 gusting 18 16.1
2015-Apr-27 17:10 305 8 gusting 19 16.1
2015-Apr-27 17:05 293 14 gusting 19 16.1
2015-Apr-27 17:00 267 12 gusting 14 16.7
2015-Apr-27 16:55 269 7 gusting 14 16.7
2015-Apr-27 16:50 268 9 gusting 14 16.7
2015-Apr-27 16:45 277 7 gusting 13 16.7
2015-Apr-27 16:40 293 8 gusting 13 16.7
2015-Apr-27 16:35 289 7 gusting 13 16.7
2015-Apr-27 16:30 294 5 gusting 19 16.1
2015-Apr-27 16:25 284 9 gusting 19 16.7
2015-Apr-27 16:20 262 6 gusting 13 16.7
2015-Apr-27 16:15 287 5 gusting 19 16.1
2015-Apr-27 16:10 320 6 gusting 19 16.1
2015-Apr-27 16:05 324 12 gusting 19 16.7
2015-Apr-27 16:00 295 5 gusting 13 16.7
2015-Apr-27 15:55 285 7 gusting 13 16.1
2015-Apr-27 15:50 291 5 gusting 14 16.1
2015-Apr-27 15:45 311 6 gusting 14 15.6
2015-Apr-27 15:40 297 6 gusting 19 15.0
2015-Apr-27 15:35 296 9 gusting 19 15.0
2015-Apr-27 15:30 302 3 gusting 16 14.4
2015-Apr-27 15:25 306 11 gusting 16 14.4
2015-Apr-27 15:20 314 6 gusting 13 14.4
2015-Apr-27 15:15 304 7 gusting 13 14.4
2015-Apr-27 15:10 304 13 gusting 24 13.9
2015-Apr-27 15:05 304 13 gusting 24 13.9
2015-Apr-27 15:00 304 13 gusting 24 13.9
2015-Apr-27 14:55 304 13 gusting 24 13.9
2015-Apr-27 14:50 304 13 gusting 24 13.9
2015-Apr-27 14:45 296 13 gusting 24 14.4
2015-Apr-27 14:40 296 6 gusting 17 14.4
2015-Apr-27 14:35 299 5 gusting 17 14.4
2015-Apr-27 14:30 293 6 gusting 14 15.0
2015-Apr-27 14:25 305 2 gusting 14 15.0
2015-Apr-27 14:20 327 6 gusting 14 15.0
2015-Apr-27 14:15 324 13 gusting 14 15.0
2015-Apr-27 14:10 311 6 gusting 13 15.0
2015-Apr-27 14:05 298 7 gusting 14 14.4
2015-Apr-27 14:00 291 7 gusting 16 14.4
2015-Apr-27 13:55 303 9 gusting 18 15.0
2015-Apr-27 13:50 303 12 gusting 19 15.0
2015-Apr-27 13:45 311 11 gusting 19 15.6
2015-Apr-27 13:40 316 12 gusting 19 15.6
2015-Apr-27 13:35 309 6 gusting 19 15.6
2015-Apr-27 13:30 301 12 gusting 23 15.6
2015-Apr-27 13:25 291 9 gusting 23 15.0
2015-Apr-27 13:20 289 8 gusting 19 15.0
2015-Apr-27 13:15 320 9 gusting 17 15.0
2015-Apr-27 13:10 304 13 gusting 17 15.0
2015-Apr-27 13:05 276 6 gusting 18 14.4
2015-Apr-27 13:00 264 8 gusting 18 13.9
2015-Apr-27 12:55 275 13 gusting 18 14.4
2015-Apr-27 12:50 313 6 gusting 14 14.4
2015-Apr-27 12:45 302 6 gusting 16 14.4
2015-Apr-27 12:40 279 6 gusting 16 13.9
2015-Apr-27 12:35 275 6 gusting 19 14.4
2015-Apr-27 12:30 286 6 gusting 19 14.4
2015-Apr-27 12:25 283 6 gusting 19 13.9
2015-Apr-27 12:20 289 11 gusting 19 13.9
2015-Apr-27 12:15 299 13 gusting 19 14.4
2015-Apr-27 12:10 293 9 gusting 18 14.4
2015-Apr-27 12:05 302 13 gusting 19 14.4
2015-Apr-27 12:00 318 13 gusting 20 14.4
2015-Apr-27 11:55 311 11 gusting 20 15.0
2015-Apr-27 11:50 300 13 gusting 20 14.4
2015-Apr-27 11:45 294 7 gusting 19 13.9
2015-Apr-27 11:40 287 12 gusting 19 13.9
2015-Apr-27 11:35 293 10 gusting 16 13.3
2015-Apr-27 11:30 308 3 gusting 16 13.3
2015-Apr-27 11:25 319 9 gusting 14 13.9
2015-Apr-27 11:20 320 7 gusting 13 13.9
2015-Apr-27 11:15 322 6 gusting 19 14.4
2015-Apr-27 11:10 305 6 gusting 26 13.9
2015-Apr-27 11:05 294 6 gusting 26 13.3
2015-Apr-27 11:00 300 6 gusting 18 13.3
2015-Apr-27 10:55 292 7 gusting 16 13.9
2015-Apr-27 10:50 304 10 gusting 18 13.9
2015-Apr-27 10:45 311 8 gusting 19 13.9
2015-Apr-27 10:40 298 6 gusting 19 13.9
2015-Apr-27 10:35 290 9 gusting 19 13.9
2015-Apr-27 10:30 291 13 gusting 18 13.9
2015-Apr-27 10:25 307 8 gusting 14 13.3
2015-Apr-27 10:20 287 9 gusting 14 13.3
2015-Apr-27 10:15 284 8 gusting 13 13.3
2015-Apr-27 10:10 311 7 gusting 13 13.3
2015-Apr-27 10:05 318 6 gusting 13 13.3
2015-Apr-27 10:00 307 6 gusting 17 13.3
2015-Apr-27 09:55 306 6 gusting 17 12.8
2015-Apr-27 09:50 334 7 gusting 13 13.9
2015-Apr-27 09:45 349 9 gusting 16 13.3
2015-Apr-27 09:40 338 9 gusting 18 13.9
2015-Apr-27 09:35 304 9 gusting 18 13.9
2015-Apr-27 09:30 304 3 gusting 14 13.9
2015-Apr-27 09:25 314 9 gusting 17 13.3
2015-Apr-27 09:20 315 3 gusting 17 12.2
2015-Apr-27 09:15 297 3 gusting 16 12.2
2015-Apr-27 09:10 302 6 gusting 14 12.2
2015-Apr-27 09:05 320 8 gusting 15 12.2
2015-Apr-27 09:00 326 9 gusting 15 12.2
2015-Apr-27 08:55 312 6 gusting 13 12.2
2015-Apr-27 08:50 296 5 gusting 13 12.2
2015-Apr-27 08:45 305 3 gusting 16 11.7
2015-Apr-27 08:40 291 2 gusting 16 11.7
2015-Apr-27 08:35 292 6 gusting 14 11.7
2015-Apr-27 08:30 310 6 gusting 15 11.7
2015-Apr-27 08:25 305 8 gusting 18 11.7
2015-Apr-27 08:20 303 10 gusting 18 11.7
2015-Apr-27 08:15 311 5 gusting 16 11.7
2015-Apr-27 08:10 323 7 gusting 16 11.7
2015-Apr-27 08:05 313 8 gusting 11 12.2
2015-Apr-27 08:00 318 5 gusting 13 12.2
2015-Apr-27 07:55 313 7 gusting 15 12.2
2015-Apr-27 07:50 306 9 gusting 16 11.7
2015-Apr-27 07:45 297 6 gusting 16 11.7
2015-Apr-27 07:40 275 9 gusting 14 11.7
2015-Apr-27 07:35 270 7 gusting 15 11.7
2015-Apr-27 07:30 290 4 gusting 15 11.1
2015-Apr-27 07:25 291 9 gusting 14 11.1
2015-Apr-27 07:20 279 10 gusting 14 11.1
2015-Apr-27 07:15 289 7 gusting 13 11.1
2015-Apr-27 07:10 301 8 gusting 14 11.1
2015-Apr-27 07:05 299 8 gusting 14 11.1
2015-Apr-27 07:00 284 3 gusting 8 10.6
2015-Apr-27 06:55 290 5 gusting 8 10.6
2015-Apr-27 06:50 292 4 gusting 9 10.0
2015-Apr-27 06:45 286 6 gusting 11 10.0
2015-Apr-27 06:40 283 7 gusting 11 10.0
2015-Apr-27 06:35 291 6 gusting 13 10.0
2015-Apr-27 06:30 285 6 gusting 13 10.6
2015-Apr-27 06:25 288 4 gusting 13 10.6
2015-Apr-27 06:20 288 6 gusting 13 10.0
2015-Apr-27 06:15 275 3 gusting 7 10.0
2015-Apr-27 06:10 273 6 gusting 8 9.4
2015-Apr-27 06:05 279 6 gusting 9 8.9
2015-Apr-27 06:00 285 6 gusting 9 8.9
2015-Apr-27 05:55 288 6 gusting 9 8.9
2015-Apr-27 05:50 280 4 gusting 9 8.9
2015-Apr-27 05:45 264 3 gusting 8 8.9
2015-Apr-27 05:40 276 5 gusting 8 8.9
2015-Apr-27 05:35 273 6 gusting 8 8.9
2015-Apr-27 05:30 273 6 gusting 8 8.9
2015-Apr-27 05:25 278 4 gusting 7 8.9
2015-Apr-27 05:20 268 3 gusting 7 8.9
2015-Apr-27 05:15 279 2 gusting 10 8.9
2015-Apr-27 05:10 298 5 gusting 11 9.4
2015-Apr-27 05:05 293 6 gusting 14 9.4
2015-Apr-27 05:00 280 6 gusting 14 9.4
2015-Apr-27 04:55 300 10 gusting 13 9.4
2015-Apr-27 04:50 304 5 gusting 12 9.4
2015-Apr-27 04:45 285 6 gusting 10 9.4
2015-Apr-27 04:40 278 3 gusting 9 9.4
2015-Apr-27 04:35 277 3 gusting 9 9.4
2015-Apr-27 04:30 282 4 gusting 7 9.4
2015-Apr-27 04:25 273 4 gusting 7 9.4
2015-Apr-27 04:20 287 5 gusting 10 9.4
2015-Apr-27 04:15 303 4 gusting 11 9.4
2015-Apr-27 04:10 312 6 gusting 13 9.4
2015-Apr-27 04:05 316 6 gusting 13 9.4
2015-Apr-27 04:00 290 6 gusting 12 9.4
2015-Apr-27 03:55 270 7 gusting 12 9.4
2015-Apr-27 03:50 277 3 gusting 7 9.4
2015-Apr-27 03:45 282 4 gusting 10 9.4
2015-Apr-27 03:40 284 5 gusting 10 9.4
2015-Apr-27 03:35 278 5 gusting 9 9.4
2015-Apr-27 03:30 289 3 gusting 9 9.4
2015-Apr-27 03:25 301 4 gusting 8 9.4
2015-Apr-27 03:20 304 5 gusting 9 9.4
2015-Apr-27 03:15 303 5 gusting 11 9.4
2015-Apr-27 03:10 308 4 gusting 11 9.4
2015-Apr-27 03:05 309 6 gusting 11 9.4
2015-Apr-27 03:00 307 8 gusting 11 9.4
2015-Apr-27 02:55 290 6 gusting 13 8.9
2015-Apr-27 02:50 272 5 gusting 13 8.9
2015-Apr-27 02:45 287 6 gusting 13 8.9
2015-Apr-27 02:40 293 6 gusting 13 8.9
2015-Apr-27 02:35 284 5 gusting 12 8.9
2015-Apr-27 02:30 290 3 gusting 13 9.4
2015-Apr-27 02:25 297 6 gusting 13 9.4
2015-Apr-27 02:20 297 8 gusting 13 9.4
2015-Apr-27 02:15 293 9 gusting 13 9.4
2015-Apr-27 02:10 300 7 gusting 12 9.4
2015-Apr-27 02:05 289 8 gusting 15 9.4
2015-Apr-27 02:00 284 7 gusting 15 9.4
2015-Apr-27 01:55 297 9 gusting 13 9.4
2015-Apr-27 01:50 275 9 gusting 13 9.4
2015-Apr-27 01:45 283 7 gusting 13 9.4
2015-Apr-27 01:40 295 6 gusting 9 9.4
2015-Apr-27 01:35 279 5 gusting 13 9.4
2015-Apr-27 01:30 272 5 gusting 13 9.4
2015-Apr-27 01:25 263 9 gusting 15 9.4
2015-Apr-27 01:20 259 9 gusting 15 9.4
2015-Apr-27 01:15 271 9 gusting 14 9.4
2015-Apr-27 01:10 290 8 gusting 14 9.4
2015-Apr-27 01:05 297 6 gusting 14 9.4
2015-Apr-27 01:00 298 7 gusting 14 9.4
2015-Apr-27 00:55 292 8 gusting 14 9.4
2015-Apr-27 00:50 280 8 gusting 14 10.0
2015-Apr-27 00:45 278 8 gusting 14 9.4
2015-Apr-27 00:40 295 9 gusting 14 9.4
2015-Apr-27 00:35 312 9 gusting 13 9.4
2015-Apr-27 00:30 295 4 gusting 13 9.4
2015-Apr-27 00:25 277 6 gusting 13 9.4
2015-Apr-27 00:20 285 9 gusting 13 9.4
2015-Apr-27 00:15 295 4 gusting 13 9.4
2015-Apr-27 00:10 292 6 gusting 14 9.4
2015-Apr-27 00:05 300 6 gusting 15 9.4
2015-Apr-27 00:00 299 6 gusting 15 9.4
2015-Apr-26 23:55 295 11 gusting 14 9.4
2015-Apr-26 23:50 298 6 gusting 13 9.4
2015-Apr-26 23:45 296 5 gusting 13 9.4
2015-Apr-26 23:40 296 6 gusting 14 9.4
2015-Apr-26 23:35 295 7 gusting 14 9.4
2015-Apr-26 23:30 284 10 gusting 14 9.4
2015-Apr-26 23:25 287 9 gusting 13 9.4
2015-Apr-26 23:20 295 5 gusting 13 9.4
2015-Apr-26 23:15 288 8 gusting 13 9.4
2015-Apr-26 23:10 294 6 gusting 13 9.4
2015-Apr-26 23:05 299 8 gusting 13 9.4
2015-Apr-26 23:00 286 6 gusting 13 9.4
2015-Apr-26 22:55 280 6 gusting 13 9.4
2015-Apr-26 22:50 290 8 gusting 13 9.4
2015-Apr-26 22:45 301 5 gusting 13 9.4
2015-Apr-26 22:40 288 5 gusting 13 9.4
2015-Apr-26 22:35 285 8 gusting 16 9.4
2015-Apr-26 22:30 307 9 gusting 16 9.4
2015-Apr-26 22:25 301 7 gusting 16 9.4
2015-Apr-26 22:20 286 10 gusting 15 9.4
2015-Apr-26 22:15 289 8 gusting 13 9.4
2015-Apr-26 22:10 265 7 gusting 13 9.4
2015-Apr-26 22:05 253 10 gusting 13 9.4
2015-Apr-26 22:00 270 6 gusting 12 9.4
2015-Apr-26 21:55 274 8 gusting 13 9.4
2015-Apr-26 21:50 267 6 gusting 13 9.4
2015-Apr-26 21:45 260 7 gusting 13 9.4
2015-Apr-26 21:40 257 6 gusting 14 9.4
2015-Apr-26 21:35 280 5 gusting 14 9.4
2015-Apr-26 21:30 293 9 gusting 15 9.4
2015-Apr-26 21:25 289 8 gusting 17 10.0
2015-Apr-26 21:20 289 9 gusting 17 10.0
2015-Apr-26 21:15 263 11 gusting 15 10.0
2015-Apr-26 21:10 259 7 gusting 14 10.0
2015-Apr-26 21:05 283 9 gusting 14 10.0
2015-Apr-26 21:00 297 12 gusting 16 10.0
2015-Apr-26 20:55 303 6 gusting 16 10.0
2015-Apr-26 20:50 283 8 gusting 14 10.0
2015-Apr-26 20:45 276 7 gusting 14 10.0
2015-Apr-26 20:40 285 11 gusting 14 10.0
2015-Apr-26 20:35 289 7 gusting 13 10.0
2015-Apr-26 20:30 290 9 gusting 13 10.0
2015-Apr-26 20:25 287 6 gusting 13 10.0
2015-Apr-26 20:20 283 8 gusting 13 10.0
2015-Apr-26 20:15 278 9 gusting 14 10.0
2015-Apr-26 20:10 308 10 gusting 14 10.0
2015-Apr-26 20:05 319 9 gusting 14 10.0
2015-Apr-26 20:00 288 9 gusting 14 10.0
2015-Apr-26 19:55 272 6 gusting 14 10.0
2015-Apr-26 19:50 277 6 gusting 15 10.0
2015-Apr-26 19:45 292 11 gusting 18 10.0
2015-Apr-26 19:40 296 11 gusting 18 10.0
2015-Apr-26 19:35 294 13 gusting 18 10.0
2015-Apr-26 19:30 294 10 gusting 14 10.0
2015-Apr-26 19:25 288 9 gusting 13 10.0
2015-Apr-26 19:20 273 6 gusting 18 10.0
2015-Apr-26 19:15 265 6 gusting 18 10.0
2015-Apr-26 19:10 266 9 gusting 14 10.0
2015-Apr-26 19:05 269 9 gusting 13 10.0
2015-Apr-26 19:00 248 9 gusting 13 10.0
2015-Apr-26 18:55 238 6 gusting 13 10.0
2015-Apr-26 18:50 253 9 gusting 14 10.0
2015-Apr-26 18:45 264 9 gusting 14 10.0
2015-Apr-26 18:40 261 6 gusting 13 10.0
2015-Apr-26 18:35 249 7 gusting 13 10.0
2015-Apr-26 18:30 229 4 gusting 6 9.4
2015-Apr-26 18:25 230 4 gusting 6 9.4
2015-Apr-26 18:20 224 2 gusting 6 9.4
2015-Apr-26 18:15 209 2 gusting 6 9.4
2015-Apr-26 18:10 197 1 gusting 3 9.4
2015-Apr-26 18:05 184 0 gusting 3 9.4
2015-Apr-26 18:00 171 1 gusting 3 9.4
2015-Apr-26 17:55 107 0 gusting 6 9.4
2015-Apr-26 17:50 9.4
2015-Apr-26 17:45 001 5 gusting 9 9.4
2015-Apr-26 17:40 284 1 gusting 6 9.4
2015-Apr-26 17:35 271 1 gusting 9 9.4
2015-Apr-26 17:30 283 3 gusting 9 9.4
2015-Apr-26 17:25 288 3 gusting 15 9.4
2015-Apr-26 17:20 293 6 gusting 18 9.4
2015-Apr-26 17:15 295 6 gusting 18 8.9
2015-Apr-26 17:10 295 7 gusting 18 8.9
2015-Apr-26 17:05 304 13 gusting 18 8.9
2015-Apr-26 17:00 307 11 gusting 18 8.3
2015-Apr-26 16:55 306 12 gusting 20 8.3
2015-Apr-26 16:50 301 13 gusting 20 7.8
2015-Apr-26 16:45 304 11 gusting 35 8.3
2015-Apr-26 16:40 304 7 gusting 35 10.0
2015-Apr-26 16:35 294 19 gusting 35 13.9
2015-Apr-26 16:30 293 16 gusting 21 13.9
2015-Apr-26 16:25 302 12 gusting 19 14.4
2015-Apr-26 16:20 296 13 gusting 19 14.4
2015-Apr-26 16:15 287 7 gusting 19 14.4
2015-Apr-26 16:10 300 13 gusting 20 13.9
2015-Apr-26 16:05 293 16 gusting 20 14.4
2015-Apr-26 16:00 267 13 gusting 16 15.0